Location: Unspecified
(0.0000°N, 0.0000°E)
Time: 00:07:42
(UTC+00:00)

A-11 Canister half - Pass Details

Date: 10 February 2023
Orbit: 1526 x 1682 km, 47.3° (Epoch: 29 March)

Event Time Altitude Azimuth Distance (km) Brightness Sun altitude
Rises 14:58:02 0° 279° (W) 4,841 12.2 47.0°
Reaches altitude 10° 15:02:57 10° 259° (W) 3,886 12.1 45.9°
Maximum altitude 15:08:21 16° 225° (SW) 3,466 11.9 44.6°
Drops below altitude 10° 15:13:51 10° 191° (S) 3,935 11.6 43.3°
Sets 15:18:58 0° 170° (S) 4,934 11.8 42.1°
